[[{"header":{"parameterUnit":"m.s-1","parameterCategory":1,"la1":30.2991,"la2":30.254,"lo1":-89.0895,"lo2":-89.0444,"dy":0.0017,"dx":0.0017,"nx":28,"ny":28,"refTime":"2024-05-13T21:00:00:Z","depth":0,"parameterNumber":2,"parameterNumberName":"U-component_of_WINDS"},"data":[0,0,0,0,0,0,0,0,0,0,0,0,0,0,0,0,0,0,0,0,0,0,0,0,0,0,0,0,0,0,0,0,0,0,0,0,0,0,0,0,0,0,0,0,0,0,0,0,0,0,0,0,0,0,0,0,0,0,-4.6228,-4.6229,0,-4.6289,-4.629,-4.6291,-4.6154,-4.615,-4.6146,-4.6142,-4.6206,-4.6211,-4.6217,0,0,0,0,0,0,0,0,0,0,0,0,0,-4.5994,-4.5999,-4.6228,-4.6229,-4.6229,-4.6289,-4.629,-4.6291,-4.6155,-4.615,-4.6145,-4.614,-4.6204,-4.6211,-4.6218,0,0,0,0,0,0,0,0,0,0,0,0,0,-4.608,-4.6001,-4.6228,-4.6169,-4.6164,-4.6289,-4.629,-4.6291,-4.6156,-4.615,-4.6143,-4.6137,-4.6202,-4.621,-4.6219,-4.6404,0,0,-4.6245,-4.6249,0,0,0,0,0,0,0,0,-4.6075,-4.6089,-4.6177,-4.6173,-4.6168,-4.6207,-4.6231,-4.6329,-4.6158,-4.6159,-4.6141,-4.6134,-4.6212,-4.6219,-4.6245,-4.6407,-4.641,-4.6246,-4.6251,-4.6255,-4.6257,0,0,0,0,0,0,0,-4.6069,-4.6085,-4.6252,-4.6178,-4.6173,-4.614,-4.6145,-4.6249,-4.6222,-4.6159,-4.6149,-4.6158,-4.6208,-4.6237,-4.6246,-4.6411,-4.6246,-4.6253,-4.6259,-4.6262,-4.6728,-4.6735,0,0,0,0,0,0,-4.6071,-4.6081,-4.625,-4.6254,-4.6104,-4.6149,-4.6155,-4.6202,-4.622,-4.6217,-4.6164,-4.6151,-4.6226,-4.6236,-4.6247,-4.6467,-4.6255,-4.6263,-4.6268,-4.6721,-4.673,-4.6738,0,0,0,0,0,0,-4.6066,-4.6087,-4.6248,-4.6165,-4.6183,-4.616,-4.6214,-4.6206,-4.6235,-4.6224,-4.6218,-4.6198,-4.6221,-4.6235,-4.6366,-4.6467,-4.6267,-4.6275,-4.6713,-4.6724,-4.6734,-4.6907,0,0,0,0,0,0,-4.606,-4.6086,-4.6156,-4.6168,-4.6188,-4.6366,-4.622,-4.6212,-4.625,-4.6235,-4.6255,-4.6252,-4.6217,-4.6354,-4.6375,-4.6476,-4.6282,-4.6704,-4.6718,-4.673,-4.6892,-4.6922,-4.6948,0,0,0,0,0,-4.6052,-4.6203,-4.6161,-4.6182,-4.6275,-4.6372,-4.6383,-4.6339,-4.6259,-4.6329,-4.6322,-4.6251,-4.6452,-4.6368,-4.6391,-4.6496,-4.6697,-4.6714,-4.6729,-4.688,-4.6916,-4.6947,0,0,0,0,0,0,-4.6205,-4.6203,-4.6156,-4.6315,-4.6345,-4.6349,-4.6436,-4.638,-4.6433,-4.6417,-4.636,-4.6366,-4.6508,-4.6514,-4.6421,-4.6676,-4.6561,-4.6582,-4.6668,-4.6702,-4.673,-4.6727,-4.6289,0,0,0,0,0,-4.6256,-4.6335,-4.6329,-4.647,-4.6487,-4.646,-4.65,-4.6463,-4.6492,-4.6504,-4.6506,-4.6537,-4.6607,-4.6655,-4.6718,-4.6891,-4.6895,-4.6974,-4.7002,-4.7025,-4.7046,-4.7139,-4.7175,-4.6791,-4.679,-4.679,0,0,-4.6365,-4.6374,-4.6427,-4.6501,-4.6519,-4.6603,-4.6471,-4.6564,-4.6626,-4.6518,-4.6643,-4.6645,-4.6676,-4.683,-4.6897,-4.6839,-4.7152,-4.7046,-4.7064,-4.7072,-4.7159,-4.7196,-4.7228,-4.6802,-4.68,-4.6798,0,0,-4.6605,-4.6619,-4.6738,-4.676,-4.6789,-4.677,-4.6799,-4.6812,-4.6809,-4.6933,-4.6854,-4.6926,-4.7048,-4.7073,-4.7102,-4.7352,-4.729,-4.7374,-4.7522,-4.7614,-4.7644,-4.767,-4.7762,-4.7795,-4.7394,-4.7394,-4.7394,0,-4.6737,-4.6859,-4.6807,-4.6906,-4.6942,-4.6847,-4.6968,-4.6991,-4.7041,-4.7068,-4.7001,-4.7152,-4.7166,-4.7325,-4.7386,-4.7412,-4.7444,-4.7373,-4.7643,-4.767,-4.7694,-4.778,-4.7815,-4.7404,-4.7403,-4.7402,-4.7401,0,-4.702,-4.7105,-4.7198,-4.7248,-4.7293,-4.7403,-4.7369,-4.7421,-4.738,-4.7368,-4.7496,-4.7509,-4.7574,-4.7608,-4.7569,-4.7762,-4.7726,-4.7653,-4.7536,-4.7742,-4.7822,-4.7855,-4.7419,-4.7415,-4.7412,-4.741,0,0,-4.736,-4.7379,-4.7415,-4.7437,-4.7462,-4.7528,-4.7633,-4.7697,-4.7744,-4.778,-4.7869,-4.7973,-4.7906,-4.7939,-4.7902,-4.7982,-4.8182,-4.7899,-4.7899,-4.7953,-4.8398,-4.8455,-4.8494,-4.8139,-4.8145,-4.815,-4.8396,0,-4.76,-4.7781,-4.7737,-4.7917,-4.7997,-4.7908,-4.7999,-4.8026,-4.8017,-4.8083,-4.8073,-4.815,-4.8053,-4.8073,-4.8148,-4.8142,-4.8271,-4.8123,-4.8223,-4.8227,-4.8221,-4.8536,-4.8596,-4.8828,-4.8427,-4.8432,-4.8436,0,-4.7904,-4.7953,-4.8141,-4.8155,-4.8186,-4.827,-4.8325,-4.8389,-4.8417,-4.8405,-4.8442,-4.8389,-4.8494,-4.8374,-4.8519,-4.842,-4.8457,-4.846,-4.8468,-4.8478,-4.8346,-4.8557,-4.89,-4.8936,-4.8484,-4.8481,-4.8477,0,-4.8137,-4.8249,-4.8377,-4.8398,-4.8416,-4.8477,-4.8487,-4.8508,-4.855,-4.8598,-4.8624,-4.8684,-4.8717,-4.8765,-4.873,-4.8646,-4.8882,-4.8758,-4.8876,-4.8878,-4.8932,-4.893,-4.929,-4.8952,-4.8952,-4.8951,-4.895,0,-4.8411,-4.8531,-4.8482,-4.8561,-4.8692,-4.8639,-4.8771,-4.8771,-4.879,-4.8868,-4.8793,-4.8868,-4.8816,-4.8886,-4.8859,-4.8985,-4.8999,-4.8994,-4.8986,-4.9003,-4.9004,-4.9029,-4.9013,-4.896,-4.8958,-4.8956,-4.8955,0,-4.8695,-4.8666,-4.88,-4.8805,-4.881,-4.8907,-4.8912,-4.8985,-4.897,-4.9069,-4.909,-4.9067,-4.9146,-4.9115,-4.9199,-4.918,-4.9342,-4.9311,-4.9333,-4.9326,-4.9447,-4.9437,-4.9838,-4.9889,-4.9516,-4.9519,-4.9522,0,-4.8873,-4.8963,-4.8978,-4.9025,-4.9041,-4.9116,-4.9158,-4.911,-4.9156,-4.9195,-4.9264,-4.9337,-4.9392,-4.9523,-4.9515,-4.9578,-4.9551,-4.9686,-4.956,-4.9574,-4.9556,-4.9553,-4.9562,-4.9713,-4.9717,-4.9721,-4.9724,0,-4.9194,-4.9175,-4.9238,-4.9297,-4.9348,-4.9392,-4.9429,-4.9472,-4.9425,-4.9482,-4.9562,-4.9605,-4.969,-4.9764,-4.9821,-4.9832,-4.9772,-4.9763,-4.9794,-4.9814,-4.9824,-4.9823,-4.9405,-4.9755,-4.9752,-4.9749,-4.9748,-4.9746,-4.9432,-4.9508,-4.9531,-4.9604,-4.9627,-4.9663,-4.9733,-4.9727,-4.9792,-4.9858,-4.9825,-4.9919,-4.9944,-5.0014,-5.0034,-5.0107,-5.0054,-5.0098,-5.011,-5.0123,-5.014,-4.981,-5.0116,-5.0115,-5.0114,-5.0114,-5.0113,0,-4.9752,-4.9762,-4.9829,-4.9883,-4.9941,-4.9877,-4.9914,-4.9967,-5.0051,-5.0079,-5.0135,-5.0228,-5.0299,-5.0295,-5.0361,-5.042,-5.0394,-5.0439,-5.0436,-5.044,-5.0182,-5.015,-5.0459,-5.0459,-5.0459,-5.0459,-5.0459,-5.0459,-4.9925,-5.0051,-5.0035,-5.0172,-5.0181,-5.0272,-5.0299,-5.0333,-5.0356,-5.0462,-5.0521,-5.0517,-5.0534,-5.06,-5.0663,-5.066,-5.0689,-5.0745,-5.0733,-5.0492,-5.0458,-5.0426,-5.0395,-5.0751,-5.0752,-5.0985,-5.0987,-5.0989]},{"header":{"parameterUnit":"m.s-1","parameterCategory":1,"la1":30.2991,"la2":30.254,"lo1":-89.0895,"lo2":-89.0444,"dy":0.0017,"dx":0.0017,"nx":28,"ny":28,"refTime":"2024-05-13T21:00:00:Z","depth":0,"parameterNumber":3,"parameterNumberName":"V-component_of_WINDS"},"data":[0,0,0,0,0,0,0,0,0,0,0,0,0,0,0,0,0,0,0,0,0,0,0,0,0,0,0,0,0,0,0,0,0,0,0,0,0,0,0,0,0,0,0,0,0,0,0,0,0,0,0,0,0,0,0,0,0,0,2.934,2.9341,0,2.9356,2.9356,2.9356,2.9294,2.9292,2.9291,2.9289,2.9306,2.9308,2.931,0,0,0,0,0,0,0,0,0,0,0,0,0,2.9259,2.926,2.934,2.9341,2.9341,2.9356,2.9356,2.9356,2.9295,2.9292,2.929,2.9288,2.9305,2.9308,2.931,0,0,0,0,0,0,0,0,0,0,0,0,0,2.9286,2.9261,2.934,2.9312,2.9309,2.9356,2.9356,2.9356,2.9295,2.9292,2.929,2.9287,2.9304,2.9307,2.931,2.9385,0,0,2.932,2.9322,0,0,0,0,0,0,0,0,2.9285,2.9289,2.9316,2.9314,2.9311,2.932,2.9333,2.9366,2.9296,2.9301,2.9289,2.9286,2.9313,2.9315,2.9324,2.9386,2.9387,2.9321,2.9323,2.9324,2.9325,0,0,0,0,0,0,0,2.9283,2.9288,2.9346,2.9316,2.9314,2.9298,2.9299,2.9339,2.9322,2.93,2.9296,2.9298,2.9311,2.9321,2.9324,2.9387,2.9321,2.9323,2.9325,2.9327,2.9509,2.9511,0,0,0,0,0,0,2.9285,2.9287,2.9346,2.9347,2.9291,2.9302,2.9303,2.932,2.9321,2.9319,2.93,2.9295,2.9317,2.932,2.9324,2.941,2.9324,2.9327,2.9329,2.9506,2.9509,2.9512,0,0,0,0,0,0,2.9283,2.929,2.9345,2.9316,2.9322,2.9307,2.9326,2.9322,2.9332,2.9322,2.9318,2.9314,2.9315,2.932,2.937,2.941,2.9328,2.9331,2.9502,2.9507,2.9511,2.9583,0,0,0,0,0,0,2.9281,2.929,2.9318,2.9317,2.9323,2.9391,2.9329,2.9324,2.9337,2.9331,2.9333,2.9331,2.9313,2.9365,2.9373,2.9413,2.9334,2.9499,2.9504,2.9509,2.9577,2.9589,2.9599,0,0,0,0,0,2.9278,2.9338,2.932,2.9327,2.9358,2.9393,2.9397,2.9375,2.9341,2.9369,2.9362,2.9331,2.9405,2.9371,2.9379,2.942,2.9496,2.9503,2.9509,2.9571,2.9587,2.9599,0,0,0,0,0,0,2.9345,2.9338,2.9317,2.9379,2.9387,2.9382,2.9417,2.9392,2.941,2.9403,2.9375,2.9376,2.9431,2.9431,2.9394,2.9492,2.9444,2.9453,2.9489,2.9503,2.9515,2.9512,2.9336,0,0,0,0,0,2.9367,2.9396,2.9388,2.9443,2.9448,2.9432,2.9447,2.9429,2.9436,2.944,2.9437,2.9445,2.947,2.9487,2.951,2.9577,2.9576,2.9609,2.9621,2.963,2.9637,2.9671,2.9685,2.9534,2.9534,2.9534,0,0,2.9413,2.9412,2.9432,2.9457,2.9461,2.9491,2.9436,2.947,2.9492,2.9445,2.9491,2.949,2.9498,2.9556,2.9582,2.9558,2.9679,2.9639,2.9646,2.9648,2.9679,2.9694,2.9706,2.9538,2.9538,2.9537,0,0,2.9511,2.9514,2.9559,2.9565,2.9572,2.956,2.9572,2.9571,2.9568,2.9614,2.9579,2.9605,2.9649,2.9655,2.9664,2.9765,2.9736,2.9773,2.9832,2.9865,2.9877,2.9888,2.9921,2.9934,2.9781,2.9781,2.9781,0,2.9567,2.961,2.9586,2.9623,2.9634,2.9592,2.9638,2.9644,2.9659,2.9667,2.964,2.9694,2.9696,2.9755,2.9779,2.9789,2.98,2.9772,2.9877,2.9888,2.9897,2.9929,2.9942,2.9785,2.9785,2.9784,2.9784,0,2.9678,2.9709,2.9745,2.9758,2.9774,2.9815,2.9796,2.9815,2.9797,2.9788,2.9835,2.9837,2.9858,2.9871,2.9854,2.9927,2.9912,2.9882,2.9833,2.9916,2.9945,2.9957,2.9791,2.979,2.9788,2.9787,0,0,2.9817,2.9817,2.983,2.9835,2.984,2.9863,2.9902,2.9922,2.9938,2.995,2.9981,3.0019,2.9991,3.0001,2.9984,3.0014,3.0091,2.998,2.998,2.9998,3.017,3.019,3.0205,3.0073,3.0075,3.0077,3.0168,0,2.9912,2.9977,2.9956,3.0022,3.005,3.0011,3.0045,3.0051,3.0045,3.0067,3.006,3.0087,3.0049,3.0054,3.0082,3.0076,3.0124,3.0069,3.01,3.0102,3.0097,3.0221,3.0243,3.0329,3.018,3.0182,3.0183,0,3.003,3.0045,3.0114,3.0112,3.0123,3.0154,3.017,3.0192,3.0199,3.0192,3.0203,3.018,3.0218,3.0171,3.0222,3.0185,3.0197,3.0195,3.0198,3.0198,3.0146,3.0222,3.0356,3.0368,3.0201,3.02,3.0199,0,3.0122,3.016,3.0205,3.0211,3.0211,3.0233,3.0235,3.0238,3.0251,3.0266,3.0274,3.0294,3.0304,3.0319,3.0302,3.0269,3.0355,3.0307,3.0349,3.0349,3.0367,3.0365,3.0502,3.0379,3.0378,3.0378,3.0378,0,3.0228,3.0271,3.0246,3.0274,3.0321,3.0297,3.0344,3.0341,3.0344,3.0371,3.034,3.0365,3.0341,3.0364,3.0351,3.0394,3.04,3.0394,3.039,3.0396,3.0396,3.0401,3.0394,3.0382,3.0381,3.038,3.038,0,3.0338,3.0323,3.037,3.0366,3.0366,3.0401,3.0397,3.0423,3.0414,3.0448,3.0454,3.0441,3.0466,3.0451,3.0477,3.0468,3.0524,3.0512,3.0521,3.0517,3.0559,3.0554,3.0702,3.0719,3.0587,3.0588,3.0589,0,3.0405,3.0437,3.0437,3.0452,3.0455,3.048,3.0492,3.0471,3.0485,3.0495,3.0519,3.0541,3.0558,3.0601,3.0593,3.0613,3.0601,3.0651,3.0603,3.0608,3.0598,3.0596,3.0598,3.066,3.0661,3.0663,3.0664,0,3.0526,3.0517,3.0536,3.0553,3.0569,3.0582,3.0592,3.0606,3.0584,3.0602,3.0627,3.0641,3.0667,3.0689,3.0706,3.0707,3.0682,3.0679,3.0689,3.0695,3.0697,3.0694,3.0545,3.0675,3.0674,3.0673,3.0673,3.0672,3.0615,3.0641,3.0644,3.0666,3.0672,3.0681,3.0704,3.0698,3.0719,3.0738,3.0724,3.0754,3.0759,3.0778,3.0783,3.0805,3.0785,3.0801,3.0804,3.0808,3.0812,3.0696,3.0809,3.0808,3.0808,3.0808,3.0807,0,3.0732,3.0732,3.0753,3.0767,3.0785,3.076,3.0769,3.0785,3.0811,3.0818,3.0835,3.0864,3.0885,3.088,3.0899,3.0918,3.0907,3.0924,3.0921,3.0921,3.0831,3.0818,3.0932,3.0932,3.0932,3.0932,3.0932,3.0932,3.0795,3.0836,3.0828,3.0871,3.0871,3.0899,3.0907,3.0915,3.092,3.0953,3.097,3.0967,3.0968,3.0987,3.1005,3.1003,3.1011,3.1032,3.1025,3.094,3.0928,3.0916,3.0904,3.1034,3.1034,3.1113,3.1114,3.1114]}]]